Fort Indiantown Gap, PA

9:38 PM EST on November 22, 2019 (GMT -0500)
Muir Army Air Field

Weather History for KMUI - September, 2019

Change the Weather History Date:

Sunday, September 15, 2019

  Actual Average Record
Temperature  
Mean Temperature 69 °F -  
Max Temperature 81 °F 74 °F 89 °F (2005)
Min Temperature 58 °F 58 °F 40 °F (2013)
Cooling Degree Days 4    
Growing Degree Days 19 (Base 50)    
Moisture  
Dew Point 61 °F    
Average Humidity 89    
Maximum Humidity 100    
Minimum Humidity 36    
Precipitation  
Precipitation 0.00 in - - ()
Sea Level Pressure  
Sea Level Pressure 30.18 in    
Wind  
Wind Speed 1 mph (NW)    
Max Wind Speed 7 mph    
Max Gust Speed -    
Visibility 4 miles    
Events Fog , Rain    
Averages and records for this station are not official NWS values.
T = Trace of Precipitation, MM = Missing Value Source: NWS Daily Summary

Daily Weather History Graph

Daily Weather History Graph

Search for Another Location

Airport or City:

Astronomy

Sep. 15, 2019 Rise Set
Actual Time 6:46 AM EDT 7:15 PM EDT
Civil Twilight 6:19 AM EDT 7:42 PM EDT
Nautical Twilight 5:47 AM EDT 8:15 PM EDT
Astronomical Twilight 5:14 AM EDT 8:48 PM EDT
Moon 8:22 PM EDT (9/15) 7:55 AM EDT (9/15)
Length of Visible Light 13h 23m
Length of Day
12h 28m
Full, 98% of the Moon is Illuminated
Sep 15
Full
Sep 21
Last Quarter
Sep 28
New
Oct 5
First Quarter
Oct 13
Full

Hourly Weather History & Observations

Time (EDT) Temp. Heat Index Dew Point Humidity Pressure Visibility Wind Dir Wind Speed Gust Speed Precip Events Conditions
12:08 AM 62.6 °F - 62.6 °F 100% 30.18 in 0.4 mi Calm Calm - N/A Fog Fog
12:40 AM 62.6 °F - 62.6 °F 100% 30.18 in 0.5 mi Calm Calm - N/A Fog Fog
12:56 AM 63.3 °F - 63.0 °F 99% 30.18 in 0.6 mi Calm Calm - N/A   Mostly Cloudy
1:04 AM 62.6 °F - 62.6 °F 100% 30.18 in 0.6 mi Calm Calm - N/A   Mostly Cloudy
1:12 AM 62.6 °F - 62.6 °F 100% 30.18 in 0.9 mi Calm Calm - N/A   Mostly Cloudy
1:21 AM 62.6 °F - 62.6 °F 100% 30.19 in 0.9 mi Calm Calm - N/A   Overcast
1:33 AM 62.6 °F - 62.6 °F 100% 30.19 in 1.1 mi Calm Calm - N/A   Overcast
1:36 AM 62.6 °F - 62.6 °F 100% 30.19 in 1.8 mi Calm Calm - N/A Rain Light Rain
1:44 AM 64.4 °F - 62.6 °F 94% 30.19 in 1.9 mi Calm Calm - N/A Rain Light Rain
1:45 AM 64.4 °F - 62.6 °F 94% 30.19 in 1.8 mi Calm Calm - N/A   Mostly Cloudy
1:53 AM 64.4 °F - 64.4 °F 100% 30.19 in 2.0 mi Calm Calm - N/A   Scattered Clouds
1:56 AM 63.9 °F - 63.5 °F 99% 30.19 in 2.0 mi Calm Calm - 0.00 in   Partly Cloudy
2:04 AM 62.6 °F - 62.6 °F 100% 30.18 in 0.8 mi Calm Calm - N/A   Clear
2:20 AM 62.6 °F - 62.6 °F 100% 30.18 in 0.5 mi Calm Calm - N/A Fog Fog
2:28 AM 62.6 °F - 62.6 °F 100% 30.18 in 1.1 mi Calm Calm - N/A   Clear
2:36 AM 62.6 °F - 62.6 °F 100% 30.18 in 4.0 mi Calm Calm - N/A   Clear
2:50 AM 62.6 °F - 62.6 °F 100% 30.18 in 1.0 mi Calm Calm - N/A   Partly Cloudy
2:56 AM 63.0 °F - 62.6 °F 99% 30.18 in 0.4 mi Calm Calm - N/A Fog Fog
3:04 AM 62.6 °F - 62.6 °F 100% 30.18 in 0.4 mi Calm Calm - N/A Fog Fog
3:12 AM 62.6 °F - 62.6 °F 100% 30.18 in 0.5 mi Calm Calm - N/A Fog Fog
3:15 AM 62.6 °F - 62.6 °F 100% 30.18 in 0.5 mi Calm Calm - N/A Fog Fog
3:23 AM 62.6 °F - 62.6 °F 100% 30.18 in 0.4 mi Calm Calm - N/A Fog Fog
3:31 AM 60.8 °F - 60.8 °F 100% 30.18 in 0.6 mi Calm Calm - N/A   Mist
3:35 AM 62.6 °F - 60.8 °F 94% 30.18 in 1.4 mi West 3.5 mph - N/A   Mist
3:43 AM 62.6 °F - 60.8 °F 94% 30.18 in 3.0 mi Calm Calm - N/A   Mist
3:49 AM 60.8 °F - 60.8 °F 100% 30.18 in 0.6 mi Calm Calm - N/A   Clear
3:56 AM 60.8 °F - 60.4 °F 99% 30.18 in 0.4 mi SW 3.5 mph - N/A Fog Fog
3:59 AM 60.8 °F - 60.8 °F 100% 30.18 in 0.4 mi Calm Calm - N/A Fog Fog
4:07 AM 62.6 °F - 60.8 °F 94% 30.19 in 0.5 mi Calm Calm - N/A Fog Fog
4:23 AM 60.8 °F - 60.8 °F 100% 30.19 in 0.4 mi Calm Calm - N/A Fog Fog
4:47 AM 59.0 °F - 59.0 °F 100% 30.20 in 0.5 mi North 3.5 mph - N/A Fog Fog
4:55 AM 59.0 °F - 59.0 °F 100% 30.20 in 0.2 mi Calm Calm - N/A Fog Fog
4:56 AM 58.8 °F - 58.5 °F 99% 30.20 in 0.2 mi Calm Calm - N/A Fog Fog
5:04 AM 59.0 °F - 59.0 °F 100% 30.20 in 1.1 mi Calm Calm - N/A   Mist
5:12 AM 60.8 °F - 60.8 °F 100% 30.20 in 5.0 mi Calm Calm - N/A   Partly Cloudy
6:56 AM 60.3 °F - 60.3 °F 100% 30.21 in 7.0 mi Calm Calm - N/A   Clear
7:56 AM 61.5 °F - 61.5 °F 100% 30.21 in 10.0 mi Calm Calm - N/A   Clear
8:56 AM 66.4 °F - 66.4 °F 100% 30.21 in 10.0 mi North 3.5 mph - N/A   Clear
9:56 AM 70.3 °F - 60.8 °F 72% 30.21 in 10.0 mi Calm Calm - N/A   Clear
10:56 AM 73.4 °F - 58.6 °F 60% 30.22 in 10.0 mi NNW 3.5 mph - N/A   Clear
11:56 AM 76.1 °F - 55.0 °F 48% 30.19 in 10.0 mi North 3.5 mph - N/A   Clear
12:56 PM 76.8 °F - 56.1 °F 49% 30.19 in 10.0 mi NW 3.5 mph - N/A   Clear
1:56 PM 79.3 °F - 52.9 °F 40% 30.15 in 10.0 mi NW 5.8 mph - N/A   Clear
2:56 PM 80.2 °F - 50.9 °F 36% 30.14 in 10.0 mi North 6.9 mph - N/A   Clear
3:56 PM 80.1 °F 80.1 °F 54.1 °F 41% 30.13 in 10.0 mi WNW 6.9 mph - N/A   Clear
4:56 PM 79.2 °F - 56.5 °F 46% 30.12 in 10.0 mi NW 4.6 mph - N/A   Clear
5:56 PM 79.0 °F - 58.1 °F 49% 30.12 in 10.0 mi Calm Calm - N/A   Clear
6:56 PM 73.8 °F - 62.1 °F 67% 30.13 in 10.0 mi Calm Calm - N/A   Partly Cloudy
7:56 PM 69.1 °F - 61.5 °F 77% 30.11 in 10.0 mi Calm Calm - N/A   Overcast
8:56 PM 66.7 °F - 61.7 °F 84% 30.11 in 10.0 mi Calm Calm - N/A   Scattered Clouds
9:56 PM 63.9 °F - 59.9 °F 87% 30.12 in 10.0 mi Calm Calm - N/A   Partly Cloudy
10:56 PM 64.0 °F - 60.4 °F 88% 30.12 in 10.0 mi Calm Calm - N/A   Overcast
11:56 PM 64.4 °F - 61.0 °F 89% 30.10 in 10.0 mi Calm Calm - N/A   Overcast